Regional Weather Roundup
Issued by NWS

Home | Current Version | Previous Version | Graphics & Text | Print | Product List | Glossary On
Versions: 1 2 3 4 5 6 7 8 9 10 11 12 13 14 15 16 17 18 19 20 21 22 23 24 25 26 27 28 29 30 31 32 33 34 35 36 37 38 39 40 41 42 43 44 45 46 47 48 49 50
839
ASUS43 KBIS 092002
RWRND

NORTH DAKOTA REGIONAL WEATHER ROUNDUP
NATIONAL WEATHER SERVICE BISMARCK ND
200 PM CST TUE FEB 09 2016

NOTE: "FAIR" INDICATES FEW OR NO CLOUDS BELOW 12,000 FEET WITH NO
SIGNIFICANT WEATHER AND/OR OBSTRUCTIONS TO VISIBILITY.


NDZ001>003-009>011-017-092100-
NORTHWEST NORTH DAKOTA

CITY           SKY/WX    TMP DP  RH WIND       PRES   REMARKS
WILLISTON      CLOUDY    35  23  61 W3        30.16F
MINOT          MOSUNNY   39  16  39 NW7       30.14F
MINOT AFB      MOSUNNY   38  19  46 N1        30.14F
$$

NDZ018>021-031>035-040>046-092100-
SOUTHWEST NORTH DAKOTA

CITY           SKY/WX    TMP DP  RH WIND       PRES   REMARKS
BISMARCK       MOSUNNY   40  14  34 W10       30.17F
DICKINSON      CLOUDY    37  22  54 NW14      30.12F
GARRISON         N/A     36  18  48 NW7       30.14F
HETTINGER ARPT CLOUDY    42  22  44 NW16      30.15F
$$

NDZ004>008-012>016-024-026-027-054-092100-
NORTHEAST NORTH DAKOTA

CITY           SKY/WX    TMP DP  RH WIND       PRES   REMARKS
GRAND FORKS    CLOUDY    12   3  67 N16       30.29F WCI  -5
GRND FRKS AFB  FLURRIES  11   4  73 N10       30.29S WCI  -2
DEVILS LAKE    CLOUDY    16   9  74 NE8       30.22F WCI   5
$$

NDZ022-023-025-028>030-036>039-047>053-092100-
SOUTHEAST NORTH DAKOTA

CITY           SKY/WX    TMP DP  RH WIND       PRES   REMARKS
FARGO          CLOUDY    14   5  67 N14       30.26F WCI  -1
JAMESTOWN      CLOUDY    23   8  52 NE7       30.20F WCI  15
$$





USA.gov is the U.S. government's official web portal to all federal, state and local government web resources and services.